Holland, MI

6:49 AM EDT on September 21, 2017 (GMT -0400)
Tulip City

Weather History for KBIV - October, 2013

Change the Weather History Date:

Saturday, October 26, 2013

  Actual Average Record
Temperature  
Mean Temperature 49 °F 49 °F  
Max Temperature 53 °F 58 °F 78 °F (1963)
Min Temperature 45 °F 41 °F 22 °F (1990)
Degree Days  
Heating Degree Days 16 16  
Month to date heating degree days 282 311  
Since 1 July heating degree days 414 441  
Cooling Degree Days 0 0  
Month to date cooling degree days 14 10  
Year to date cooling degree days 811 692  
Moisture  
Dew Point 34 °F    
Average Humidity 57    
Maximum Humidity 63    
Minimum Humidity 50    
Precipitation  
Precipitation 0.00 in 0.13 in 0.96 in (2016)
Month to date precipitation 3.72 2.99  
Year to date precipitation 32.91 30.10  
Sea Level Pressure  
Sea Level Pressure 29.88 in    
Wind  
Wind Speed 18 mph (West)    
Max Wind Speed 40 mph    
Max Gust Speed 48 mph    
Visibility 10 miles    
Events      
T = Trace of Precipitation, MM = Missing Value Source: NWS Daily Summary

Daily Weather History Graph

Daily Weather History Graph

Search for Another Location

Airport or City:

Trip Planner

Search our weather history database for the weather conditions in past years. The results will help you decide how hot, cold, wet, or windy it might be!

Date:

Astronomy

Oct. 26, 2013 Rise Set
Actual Time 8:11 AM EDT 6:44 PM EDT
Civil Twilight 7:42 AM EDT 7:13 PM EDT
Nautical Twilight 7:09 AM EDT 7:46 PM EDT
Astronomical Twilight 6:36 AM EDT 8:19 PM EDT
Moon 12:03 AM EDT (10/26) 2:28 PM EDT (10/26)
Length of Visible Light 11h 31m
Length of Day
10h 33m
Waning Gibbous, 53% of the Moon is Illuminated
Oct 26
Waning Gibbous
Oct 26
Last Quarter
Nov 3
New
Nov 10
First Quarter
Nov 17
Full

Hourly Weather History & Observations

Time (EDT) Temp. Windchill Dew Point Humidity Pressure Visibility Wind Dir Wind Speed Gust Speed Precip Events Conditions
12:53 AM 50.0 °F - 32.0 °F 50% 29.98 in 10.0 mi SW 33.4 mph 48.3 mph N/A   Overcast
1:53 AM 50.0 °F - 32.0 °F 50% 29.97 in 10.0 mi WSW 28.8 mph 43.7 mph N/A   Overcast
2:53 AM 50.0 °F - 33.1 °F 52% 29.94 in 10.0 mi SW 35.7 mph 46.0 mph N/A   Overcast
3:53 AM 50.0 °F - 33.1 °F 52% 29.89 in 10.0 mi SW 31.1 mph 46.0 mph N/A   Overcast
4:53 AM 50.0 °F - 34.0 °F 54% 29.86 in 10.0 mi SW 31.1 mph 44.9 mph N/A   Overcast
5:53 AM 50.0 °F - 34.0 °F 54% 29.83 in 10.0 mi SW 28.8 mph 44.9 mph N/A   Overcast
6:53 AM 51.1 °F - 34.0 °F 52% 29.82 in 10.0 mi WSW 28.8 mph 40.3 mph N/A   Overcast
7:53 AM 48.9 °F - 35.1 °F 59% 29.81 in 10.0 mi WSW 27.6 mph 41.4 mph N/A   Overcast
8:53 AM 50.0 °F - 35.1 °F 57% 29.81 in 10.0 mi WSW 26.5 mph 34.5 mph N/A   Overcast
9:53 AM 50.0 °F - 37.0 °F 61% 29.80 in 10.0 mi WSW 21.9 mph 31.1 mph N/A   Overcast
10:53 AM 50.0 °F - 37.0 °F 61% 29.79 in 10.0 mi West 18.4 mph 28.8 mph N/A   Overcast
11:53 AM 50.0 °F - 37.9 °F 63% 29.74 in 10.0 mi West 17.3 mph 23.0 mph N/A   Overcast
12:53 PM 51.1 °F - 39.0 °F 63% 29.74 in 10.0 mi West 11.5 mph 20.7 mph N/A   Overcast
1:00 PM 51.8 °F - 39.2 °F 62% 29.79 in 10.0 mi WNW 17.3 mph 25.3 mph N/A   Overcast
1:34 PM 51.8 °F - 39.2 °F 62% 29.80 in 10.0 mi WNW 12.7 mph 21.9 mph N/A   Overcast
1:53 PM 51.1 °F - 39.0 °F 63% 29.75 in 10.0 mi NW 17.3 mph 23.0 mph N/A   Overcast
2:53 PM 51.1 °F - 37.9 °F 61% 29.77 in 10.0 mi NW 13.8 mph 24.2 mph N/A   Overcast
3:53 PM 50.0 °F - 34.0 °F 54% 29.88 in 10.0 mi NW 16.1 mph 26.5 mph N/A   Mostly Cloudy
4:53 PM 48.9 °F - 34.0 °F 56% 29.90 in 10.0 mi NW 15.0 mph 21.9 mph N/A   Overcast
5:53 PM 48.9 °F - 32.0 °F 52% 29.93 in 10.0 mi NW 8.1 mph 18.4 mph N/A   Overcast
6:53 PM 48.0 °F - 32.0 °F 54% 29.95 in 10.0 mi NW 8.1 mph 18.4 mph N/A   Overcast
7:53 PM 46.0 °F 41.9 °F 33.1 °F 61% 29.98 in 10.0 mi NNW 8.1 mph - N/A   Mostly Cloudy
8:53 PM 46.9 °F - 30.9 °F 54% 30.00 in 10.0 mi NW 5.8 mph - N/A   Mostly Cloudy
9:53 PM 46.9 °F - 32.0 °F 56% 30.02 in 10.0 mi NNW 10.4 mph - N/A   Overcast
10:53 PM 46.9 °F - 30.9 °F 54% 30.03 in 10.0 mi NNW 6.9 mph 16.1 mph N/A   Mostly Cloudy
11:53 PM 45.0 °F 41.2 °F 28.9 °F 53% 30.04 in 10.0 mi NW 6.9 mph - N/A   Scattered Clouds